Home   Weather   West Palm Beach   Past weeks

Flag for USA Past Weather in West Palm Beach, Florida, USA — Yesterday and Last 2 Weeks

Now
67 °F

Light rain. Fog.


Feels Like: 67 °F
Forecast: 71 / 74 °F
Wind: 8 mph from North

Location: Palm Beach International Airport

Current Time: Dec 10, 2016 at 4:12:39 am

Latest Report: Dec 10, 2016 at 2:53 am


Visibility: 3 mi

Pressure: 30.22 "Hg

Humidity: 93%

Dew Point: 65 °F

Location of West Palm BeachLocation

Past Weather in West Palm Beach — Graph

°F

West Palm Beach Temperature Yesterday

Maximum temperature yesterday: 71 °F (at 6:53 am)
Minimum temperature yesterday: 63 °F (at 11:53 pm)
Average temperature yesterday: 68 °F

High & Low Weather Summary for the Past Weeks

 TemperatureHumidityPressure
High86 °F (Dec 6, 12:53 pm)100% (Dec 2, 1:53 am)30.24 "Hg (Dec 2, 1:53 am)
Low60 °F (Nov 27, 6:53 am)40% (Nov 27, 10:53 am)29.90 "Hg (Dec 6, 2:53 pm)
Average75 °F74%30.05 "Hg
* Reported Nov 25 2:53 am — Dec 10 2:53 am, West Palm Beach, Weather by CustomWeather, © 2016

Note: Actual official high and low records may vary slightly from our data, if they occured in-between our weather recording intervals... More about our weather records

Advertising

West Palm Beach Weather History for the Previous 24 Hours

Scroll right to see more
 ConditionsComfort  
Time TempWeatherWind HumidityBarometerVisibility
2:53 am
Sat, Dec 10
67 °FLight rain. Fog.8 mph93%30.22 "Hg3 mi
1:53 am66 °FRain. Fog.5 mph96%30.22 "Hg3 mi
12:53 am64 °FRain. Fog.8 mph97%30.22 "Hg2 mi
11:53 pm
Fri, Dec 9
63 °FHeavy rain. Fog.6 mph97%30.23 "Hg2 mi
10:57 pm65 °FHeavy rain. Fog.8 mph97%30.24 "Hg2 mi
10:01 pm65 °FRain. Fog.6 mph91%30.24 "Hg5 mi
8:53 pm67 °FPassing clouds.14 mph73%30.22 "Hg10 mi
7:53 pm67 °FPartly cloudy.17 mph73%30.20 "Hg10 mi
6:53 pm66 °FPassing clouds.16 mph78%30.20 "Hg10 mi
5:53 pm67 °FPartly cloudy.14 mph79%30.19 "Hg10 mi
4:53 pm68 °FBroken clouds.13 mph76%30.18 "Hg10 mi
3:53 pm69 °FBroken clouds.18 mph73%30.18 "Hg10 mi
2:53 pm71 °FBroken clouds.16 mph71%30.17 "Hg10 mi
1:53 pm70 °FBroken clouds.14 mph76%30.18 "Hg7 mi
12:53 pm67 °FMostly cloudy.16 mph87%30.19 "Hg7 mi
12:03 pm67 °FMostly cloudy.15 mph90%30.21 "Hg7 mi
11:59 am67 °FCloudy.13 mph90%30.21 "Hg7 mi
10:53 am68 °FBroken clouds.13 mph82%30.24 "Hg10 mi
9:53 am70 °FMore clouds than sun.16 mph76%30.23 "Hg10 mi
8:53 am71 °FOvercast.12 mph73%30.21 "Hg10 mi
7:53 am71 °FOvercast.12 mph73%30.19 "Hg10 mi
6:53 am71 °FPassing clouds.10 mph73%30.16 "Hg10 mi
5:53 am70 °FOvercast.13 mph79%30.14 "Hg10 mi
4:53 am69 °FOvercast.10 mph79%30.13 "Hg10 mi
Weather by CustomWeather, © 2016

See weather overviewHow to use our weather pages